Weather History for Fryeburg, ME

Change the Weather History Date:

Saturday, March 16, 2013

  Actual Average Record
Temperature  
Mean Temperature 26 °F -  
Max Temperature 34 °F 37 °F 46 °F (2001)
Min Temperature 21 °F 17 °F 5 °F (1998)
Degree Days  
Heating Degree Days 38    
Moisture  
Dew Point 11 °F    
Average Humidity 53    
Maximum Humidity 80    
Minimum Humidity 35    
Precipitation  
Precipitation 0.00 in - - ()
Sea Level Pressure  
Sea Level Pressure 29.78 in    
Wind  
Wind Speed 5 mph (NW)    
Max Wind Speed 12 mph    
Max Gust Speed 18 mph    
Visibility 10 miles    
Events Snow    
Averages and records for this station are not official NWS values.
T = Trace of Precipitation, MM = Missing Value Source: NWS Daily Summary

Daily Weather History Graph

Daily Weather History Graph

Search for Another Location

Airport:

Trip Planner

Search our weather history database for the weather conditions in past years. The results will help you decide how hot, cold, wet, or windy it might be!

Date:

Astronomy

Mar. 16, 2013 Rise Set
Actual Time 6:53 AM EDT 6:51 PM EDT
Civil Twilight 6:25 AM EDT 7:20 PM EDT
Nautical Twilight 5:51 AM EDT 7:53 PM EDT
Astronomical Twilight 5:17 AM EDT 8:28 PM EDT
Moon 9:11 AM EDT No Moon Set
Length of Visible Light 12h 55m
Length of Day
11h 57m
Waxing Crescent, 23% of the Moon is Illuminated
Mar 16
Waxing Crescent
Mar 19
First Quarter
Mar 27
Full
Apr 3
Last Quarter
Apr 10
New

Hourly Weather History & Observations

Time (EDT) Temp. Windchill Dew Point Humidity Pressure Visibility Wind Dir Wind Speed Gust Speed Precip Events Conditions
12:54 AM 28.9 °F 20.4 °F 14.0 °F 54% 29.66 in 10.0 mi West 9.2 mph 18.4 mph N/A   Clear
1:54 AM 28.0 °F 18.1 °F 10.9 °F 49% 29.69 in 10.0 mi WNW 11.5 mph 18.4 mph N/A   Clear
2:54 AM 26.1 °F 18.4 °F 10.9 °F 53% 29.70 in 10.0 mi WNW 6.9 mph - N/A   Mostly Cloudy
3:54 AM 23.0 °F - 10.9 °F 60% 29.70 in 10.0 mi Calm Calm - N/A   Partly Cloudy
4:54 AM 23.0 °F - 12.9 °F 65% 29.73 in 10.0 mi Calm Calm - N/A   Overcast
5:54 AM 24.1 °F 19.7 °F 16.0 °F 71% 29.75 in 10.0 mi NNW 3.5 mph - 0.00 in   Overcast
6:44 AM 21.2 °F - 15.8 °F 80% 29.76 in 10.0 mi Calm Calm - 0.00 in   Overcast
6:51 AM 21.2 °F 16.4 °F 14.0 °F 74% 29.76 in 10.0 mi NE 3.5 mph - 0.00 in   Overcast
6:54 AM 21.9 °F 17.2 °F 15.1 °F 75% 29.78 in 10.0 mi ENE 3.5 mph - 0.00 in   Overcast
7:46 AM 26.6 °F 18.2 °F 12.2 °F 55% 29.78 in 10.0 mi North 8.1 mph - 0.00 in   Overcast
7:54 AM 26.1 °F 20.5 °F 12.9 °F 58% 29.80 in 10.0 mi NW 4.6 mph - 0.00 in   Overcast
8:04 AM 24.8 °F 17.9 °F 12.2 °F 59% 29.78 in 1.8 mi NW 5.8 mph - 0.00 in Snow Light Snow
8:11 AM 24.8 °F 19.1 °F 14.0 °F 64% 29.78 in 3.0 mi NNW 4.6 mph - 0.00 in Snow Light Snow
8:22 AM 24.8 °F 20.5 °F 14.0 °F 64% 29.79 in 9.0 mi North 3.5 mph - 0.00 in   Overcast
8:54 AM 26.1 °F - 14.0 °F 60% 29.82 in 10.0 mi Calm Calm - 0.00 in   Overcast
9:05 AM 26.6 °F 22.6 °F 14.0 °F 59% 29.79 in 10.0 mi NNW 3.5 mph - 0.00 in   Overcast
9:54 AM 28.0 °F - 14.0 °F 56% 29.82 in 10.0 mi Calm Calm - 0.00 in   Mostly Cloudy
10:54 AM 28.0 °F 24.2 °F 8.1 °F 43% 29.81 in 10.0 mi NW 3.5 mph - 0.00 in   Clear
11:54 AM 30.0 °F 25.2 °F 7.0 °F 38% 29.80 in 10.0 mi Variable 4.6 mph - 0.00 in   Clear
12:54 PM 30.9 °F 26.2 °F 7.0 °F 37% 29.79 in 10.0 mi Variable 4.6 mph - 0.00 in   Clear
1:54 PM 32.0 °F 26.4 °F 8.1 °F 37% 29.78 in 10.0 mi Variable 5.8 mph 16.1 mph N/A   Clear
2:54 PM 32.0 °F 26.4 °F 7.0 °F 35% 29.77 in 10.0 mi Variable 5.8 mph - 0.00 in   Partly Cloudy
3:54 PM 30.9 °F 24.3 °F 8.1 °F 38% 29.79 in 10.0 mi Variable 6.9 mph - 0.00 in   Scattered Clouds
4:54 PM 30.9 °F 25.2 °F 7.0 °F 37% 29.78 in 10.0 mi NW 5.8 mph - 0.00 in   Partly Cloudy
5:54 PM 30.0 °F 25.2 °F 8.1 °F 40% 29.78 in 10.0 mi West 4.6 mph - N/A   Overcast
6:54 PM 28.0 °F 22.8 °F 8.1 °F 43% 29.81 in 10.0 mi WNW 4.6 mph - N/A   Scattered Clouds
7:54 PM 28.0 °F 24.2 °F 8.1 °F 43% 29.82 in 10.0 mi NW 3.5 mph - N/A   Scattered Clouds
8:54 PM 28.0 °F 21.7 °F 8.1 °F 43% 29.84 in 10.0 mi NW 5.8 mph - N/A   Overcast
9:54 PM 27.0 °F 21.6 °F 9.0 °F 47% 29.86 in 10.0 mi Variable 4.6 mph - N/A   Overcast
10:54 PM 25.0 °F - 9.0 °F 51% 29.87 in 10.0 mi Calm Calm - N/A   Partly Cloudy
11:54 PM 25.0 °F 17.1 °F 8.1 °F 49% 29.89 in 10.0 mi WNW 6.9 mph - N/A   Clear